Tracking 18850 objects as of 22-Nov-2017
HD Live streaming from Space Station
objects crossing your sky now

DFS 2

Track DFS 2 now!
DFS 2 is classified as:


NORAD ID: 20706
Int'l Code: 1990-063B
Perigee: 35,950.3 km
Apogee: 36,044.7 km
Inclination: 13.1 °
Period: 1,446.5 minutes
Semi major axis: 42368 km
RCS: 2 m2 (large)
Launch date: July 24, 1990
Source: Germany (GER)
Launch site: FRENCH GUIANA (FRGUI)
aabbcc
Your satellite tracking list
Your tracking list is empty




NASA's NSSDC Master Catalog

Two Line Element Set (TLE):
1 20706U 90063B   17325.53579133 -.00000318 +00000-0 +00000-0 0  9990
2 20706 013.0916 028.5871 0011135 237.2524 110.8137 00.99549414091763
Source of the keplerian elements: AFSPC